Location: *
(43.0409°N, 0.1694°E)
Time: 21:45:42
(UTC+00:00)

PAYLOAD A - Pass Details

Date: 03 October 2023
Orbit: 692 x 830 km, 98.5° (Epoch: 04 December)

Event Time Altitude Azimuth Distance (km) Brightness Sun altitude
Rises 03:23:03 0° 16° (NNE) 3,151 7.7 -28.6°
Reaches altitude 10° 03:25:19 10° 20° (NNE) 2,244 6.9 -28.2°
Maximum altitude 03:30:13 64° 102° (ESE) 832 4.2 -27.4°
Enters shadow 03:31:05 54° 150° (SSE) 916 4.3 -27.2°
